Regional Weather Roundup
Issued by NWS Sioux Falls, SD

Home | Current Version | Previous Version | Text Only | Print | Product List | Glossary On
Versions: 1 2 3 4 5 6 7 8 9 10 11 12 13 14 15 16 17 18 19 20 21 22 23 24 25 26 27 28 29 30 31 32 33 34 35 36 37 38 39 40 41 42 43 44 45 46 47 48 49 50
000
ASUS43 KFSD 281210
RWRFSD

WEATHER ROUNDUP FOR SE SOUTH DAKOTA/SW MINNESOTA/NW IOWA
NATIONAL WEATHER SERVICE SIOUX FALLS SD
700 AM CDT FRI AUG 28 2015

NOTE: "FAIR" INDICATES FEW OR NO CLOUDS BELOW 12,000 FEET WITH NO
SIGNIFICANT WEATHER AND OR OBSTRUCTIONS TO VISIBILITY.


SDZ038>040-050-052>070-281300-
SOUTHEAST SOUTH DAKOTA

CITY           SKY/WX    TMP DP  RH WIND       PRES   REMARKS
BROOKINGS      CLOUDY    64  61  88 E6        29.96R
CHAMBERLAIN    CLOUDY    65  65 100 E5        29.93R
6HR MIN TEMP:  65; 6HR MAX TEMP:  66; 6HR PCP:  0.04;

HURON          CLOUDY    65  64  97 E5        29.92R
6HR MIN TEMP:  65; 6HR MAX TEMP:  67; 6HR PCP: TRACE;

MADISON        CLOUDY    63  63 100 E9        29.94R
MITCHELL       CLOUDY    66  64  93 NE6       29.92R
6HR MIN TEMP:  66; 6HR MAX TEMP:  67; 6HR PCP:  0.01;

SIOUX FALLS    CLOUDY    64  62  93 NE9       29.91R
6HR MIN TEMP:  64; 6HR MAX TEMP:  66; 6HR PCP:  0.01;

WINNER         FOG       67  65  93 NE9       29.93R VSB 1/2
YANKTON        CLOUDY    64  63  94 NE12      29.85R
$$

MNZ071-072-080-081-089-090-097-098-281300-
SOUTHWEST MINNESOTA

CITY           SKY/WX    TMP DP  RH WIND       PRES   REMARKS
FAIRMONT       CLOUDY    63  57  82 SE9       29.98F
JACKSON        CLOUDY    63  61  94 E9        29.97S FOG
LUVERNE        CLOUDY    64  61  88 E7        29.92R
MARSHALL       CLOUDY    63  59  88 SE7       29.96F
6HR MIN TEMP:  63; 6HR MAX TEMP:  66; 6HR PCP:  0.01;

MONTEVIDEO     PTCLDY    57  57 100 SE5       29.98S FOG
PIPESTONE      MOCLDY    63  61  94 E5        29.94S
REDWOOD FALLS  LGT RAIN  64  62  93 S8        29.97R
TRACY          CLOUDY    64  62  95 SE5       29.96S
WINDOM         CLOUDY    63  61  94 E10       29.97S
WORTHINGTON    CLOUDY    63  59  88 E8        29.95S
$$

IAZ001>003-012>014-020>022-031-032-NEZ013-014-SDZ071-281300-
NORTHWEST IOWA

CITY           SKY/WX    TMP DP  RH WIND       PRES   REMARKS
CHEROKEE       HVY RAIN  63  63 100 E12G18    29.87S
DENISON        RAIN      64  64 100 VRB7G21   29.81F
ESTHERVILLE    CLOUDY    62  61  96 E14       29.95F
LE MARS        RAIN      64  64 100 E13       29.85S
ORANGE CITY    DRIZZLE   64  64 100 E9        29.87S
SHELDON        CLOUDY    63  63 100 E10G18    29.88S FOG
SIOUX CITY     LGT RAIN  66  62  87 E10       29.81S
6HR MIN TEMP:  66; 6HR MAX TEMP:  67; 6HR PCP:  1.79;

SPENCER        CLOUDY    63  61  93 E14       29.92F FOG
6HR MIN TEMP:  63; 6HR MAX TEMP:  65; 6HR PCP:  0.16;

STORM LAKE     RAIN      63  63 100 E14G24    29.88F
$$

ABBREVIATIONS USED IN REMARKS
   TC - TEMPERATURE IN CELSIUS
  WCI - WIND CHILL INDEX
   HX - HEAT INDEX
  VSB - VISIBILITY



USA.gov is the U.S. government's official web portal to all federal, state and local government web resources and services.